Powrót do katalogu

KUIPER-00106

AktywnyŁącznośćLEO
NORAD 65144·PAYLOAD·🇺🇸 United States

Wystrzelony Aug 11, 2025 z Cape Canaveral Space Force Station

Loading…

Następne Przeloty (najbliższe 24 godziny)

TLE

ŚwieżeSource: CelesTrak SupGP

Epoka: Sep 14, 2026, 20:41 UTC

1 65144C 25171N   26257.86190972  .00004209  00000+0  55119-3 0  2575
2 65144  51.9020  27.9056 0000619 101.8282 222.3828 14.79913783    16

Śledź KUIPER-00106 w czasie rzeczywistym z AllMySat

Download on the App Store